パンスターズ彗星

P/2015 A3 ( PanSTARRS )

English version
Home page
Updated on February 20, 2021

---------------------------------------------------------------------

・ プロフィール

発見日 2015年1月8日
発見光度 21.0等
発見者 Pan-STARRS 1 telescope (Haleakala)

・ 軌道要素

Epoch 2015 Feb. 27.0 TT = JDT 2457080.5                                         
T 2015 Feb. 22.87878 TT                                 Rudenko                 
q   1.1528673            (2000.0)            P               Q                  
n   0.04826115     Peri.  249.62149     +0.87944844     +0.45808043             
a   7.4714391      Node   277.07500     +0.47068601     -0.79644075             
e   0.8456967      Incl.  172.51032     +0.07088813     -0.39477138             
P  20.4                                                                         
From 57 observations 2015 Jan. 8-June 12, mean residual 0".4.                   

・ 光度変化

        H = 18.7  G = 0.15

---------------------------------------------------------------------

軌道要素はM.P.E.C. 2021-B143に掲載されたものです。
光度グラフはComet for Windowsで作成したものです。

---------------------------------------------------------------------

Copyright(C) Seiichi Yoshida (comet@aerith.net). All rights reserved.